{"data":{"norad_id":64296,"epoch":"2026-05-24T21:27:46.776096Z","epoch_age_seconds":87258,"freshness":"FRESH","line1":"1 64296U 25123F   26144.89429139  .00004057  00000+0  34748-3 0  9996","line2":"2 64296  70.0013   2.3062 0002804 260.5477  99.5365 14.98339633 54250","mean_motion":14.98339633,"eccentricity":0.0002804,"inclination_deg":70.0013,"raan_deg":2.3062,"arg_perigee_deg":260.5477,"mean_anomaly_deg":99.5365,"bstar":0.00034748,"rev_number":5425,"period_min":96.106381242603,"perigee_km":570.07727611239,"apogee_km":573.9749275799,"semimajor_km":6950.1631018461,"source":"CELESTRAK","updated_at":"2026-05-25T13:38:20.365605Z"}}